World > North America > United States > Oregon > Eagle Creek

Hourly Eagle Creek, OR Regional Weather

Feedback E-mail the Weather

Quick WX

Eagle Creek, OR Weather Maps

°F °C°F °C
Eagle Creek Weather Map
UTC Time: 8/14/2022, 10:23
Your Time:

Eagle Creek, OR Regional Weather

Expires:202208141000;;074493
ASUS46 KPQR 140910
RWROR 

OREGON REGIONAL WEATHER ROUNDUP
NATIONAL WEATHER SERVICE PORTLAND OR
200 AM PDT SUN AUG 14 2022

NOTE: "FAIR" INDICATES FEW OR NO CLOUDS BELOW 12,000 FEET WITH
NO SIGNIFICANT WEATHER AND/OR OBSTRUCTIONS TO VISIBILITY.


ORZ001>013-141000-
NORTHWEST OREGON

  
CITY           SKY/WX    TMP DP  RH WIND       PRES   REMARKS
ASTORIA        CLEAR     55  53  93 S3        30.16R                  
TILLAMOOK      CLEAR     52  52 100 CALM      30.17S                  
NEWPORT        CLEAR     52  52 100 CALM      30.18F                  
FLORENCE       FAIR      55  55 100 CALM      30.15S                  
PORTLAND       CLEAR     64  57  78 CALM      30.14S                  
VANCOUVER WA   CLEAR     64  55  72 CALM      30.14S                  
SCAPPOOSE      CLEAR     63  55  75 NW6       30.13S                  
HILLSBORO      CLEAR     55  53  93 NW3       30.14S                  
AURORA         CLEAR     59  54  83 N6        30.15R                  
MCMINNVILLE    CLEAR     55  53  93 CALM      30.14R                  
SALEM          CLEAR     61  54  77 N5        30.13S                  
CORVALLIS      CLEAR     58  54  86 NW8       30.15R                  
EUGENE         CLEAR     57  53  86 CALM      30.14R                  
CRESWELL       CLEAR     54  54 100 CALM      30.13S                  
$$


SKY/WX - Weather  TMP - Temperature  DP - Dew Point  RH - Humidity
WIND - Wind Direction/Speed PRES - Barometric Pressure VSB - Visibility
WCI - Wind Chill Index E13G22 Wind - East Wind 13 mph/Gusts of 22 mph

Trending Headlines

Eagle Creek Radar Loop



Eagle Creek Quick Facts


National Two Day Weather Forecast


E-mail the Eagle Creek Weather Forecast

Voice your opinion or tell us about page issues...